Home   Weather   Adama   Past weeks

Flag for Ethiopia Past Weather in Adama, Ethiopia — Yesterday and Last 2 Weeks

Now
66 °F

Passing clouds.


Feels Like: 66 °F
Forecast: 51 / 79 °F
Wind: 18 mph from East

Location: Addis Ababa Airport

Current Time: Feb 20, 2017 at 9:17:11 pm

Latest Report: Feb 20, 2017 at 6:00 pm


Visibility: N/A

Pressure: 30.30 "Hg (25.07 "Hg at 1621m altitude)

Humidity: 40%

Dew Point: 41 °F

Location of AdamaLocation

Past Weather in Adama — Graph

°F

Adama Temperature Yesterday

Maximum temperature yesterday: 68 °F (at 1:00 pm)
Minimum temperature yesterday: 55 °F (at 3:00 am)
Average temperature yesterday: 60 °F

High & Low Weather Summary for the Past Weeks

 TemperatureHumidityPressure
High79 °F (Feb 9, 2:00 pm)100% (Feb 14, 12:00 am)30.42 "Hg (Feb 14, 12:00 am)
Low50 °F (Feb 11, 4:00 am)10% (Feb 9, 5:00 pm)30.18 "Hg (Feb 11, 3:00 pm)
Average63 °F55%30.30 "Hg
* Reported Feb 5 8:00 pm — Feb 20 6:00 pm, Adama, Weather by CustomWeather, © 2017

Note: Actual official high and low records may vary slightly from our data, if they occured in-between our weather recording intervals... More about our weather records

Advertising

Adama Weather History for the Previous 24 Hours

Scroll right to see more
 ConditionsComfort  
Time TempWeatherWind HumidityBarometerVisibility
6:00 pm
Mon, Feb 20
66 °FPassing clouds.18 mph40%30.30 "HgN/A
5:00 pm70 °FPassing clouds.18 mph40%30.27 "HgN/A
4:00 pm72 °FPassing clouds.17 mph36%30.27 "HgN/A
3:00 pm72 °FScattered clouds.17 mph41%30.27 "HgN/A
2:00 pm72 °FPartly sunny.15 mph41%30.30 "HgN/A
1:00 pm72 °FPartly sunny.16 mph44%30.33 "HgN/A
12:00 pm68 °FPartly sunny.14 mph53%30.36 "HgN/A
11:00 am66 °FPartly sunny.12 mph52%30.39 "HgN/A
10:00 am63 °FPartly sunny.10 mph59%30.42 "HgN/A
8:00 am55 °FPartly sunny.5 mph82%30.42 "HgN/A
6:00 am52 °FPassing clouds.7 mph94%30.36 "HgN/A
4:00 am52 °FPassing clouds.7 mph94%30.36 "HgN/A
3:00 am52 °FPassing clouds.9 mph94%30.36 "HgN/A
2:00 am52 °FPassing clouds.5 mph94%30.36 "HgN/A
1:00 am54 °FPassing clouds.9 mph94%30.36 "HgN/A
12:00 am61 °FPassing clouds.7 mph72%30.39 "HgN/A
11:00 pm
Sun, Feb 19
55 °FPassing clouds.7 mph88%30.39 "HgN/A
10:00 pm57 °FPassing clouds.12 mph82%30.39 "HgN/A
9:00 pm59 °FPassing clouds.14 mph77%30.18 "HgN/A
Weather by CustomWeather, © 2017

See weather overviewHow to use our weather pages